Lapse_Rate
5.9 5.7 6.0 6.0 6.2 6.3 6.3 6.2 6.1 5.9 5.0 5.5 5.1 5.6 6.2 6.3 6.5 6.3 5.9 6.1 5.9 5.9 6.3 6.4 6.0 5.6 5.3 6.0 6.3 5.9 5.9 6.0 6.2 6.3 6.1 6.2 6.2 6.2 6.2 6.1 6.0 5.8 5.7 5.7
5.9 5.8 5.8 6.1 6.3 6.4 6.3 6.3 6.5 6.1 5.8 6.0 5.5 5.4 5.6 5.9 6.3 6.3 6.0 5.7 5.9 5.7 5.4 5.8 5.8 5.6 5.5 5.7 6.2 6.7 6.5 6.4 6.2 6.1 6.0 5.9 6.3 6.3 6.2 6.1 6.1 6.2 6.0 6.0
5.7 6.0 6.1 6.2 5.9 6.1 6.2 6.0 6.1 6.2 6.1 5.2 6.0 5.8 5.9 5.9 6.0 6.0 6.1 5.6 5.1 5.6 6.0 6.3 5.9 5.6 6.0 6.2 7.2 7.4 7.0 6.7 6.7 6.5 6.1 6.0 6.0 6.1 6.1 6.2 6.1 6.2 6.3 6.2
5.1 5.5 4.3 5.5 5.8 5.9 5.9 6.0 6.0 5.9 6.1 5.7 5.6 6.0 5.9 5.9 6.1 6.0 5.7 5.9 5.7 5.3 5.3 5.8 5.7 6.3 6.9 6.6 7.1 7.0 7.0 6.7 6.8 6.8 6.5 6.2 6.0 6.1 6.3 6.1 6.1 6.1 6.2 6.4
5.0 5.0 5.6 6.1 6.1 6.0 5.9 5.8 6.2 6.1 5.9 5.7 5.5 5.6 6.0 6.0 5.9 6.0 5.8 5.7 5.7 5.5 5.7 5.5 5.8 6.5 6.8 6.8 7.1 7.1 6.7 6.7 6.8 6.6 6.8 6.4 6.0 6.5 6.5 6.5 6.0 6.2 6.2 6.2
5.1 5.0 4.2 5.9 6.2 5.9 5.7 5.8 5.9 6.3 6.1 6.0 5.8 5.2 6.0 5.8 6.1 6.0 5.9 5.8 5.8 5.6 5.5 5.7 5.6 5.4 6.0 6.8 6.2 6.3 6.6 6.6 6.8 6.7 6.9 6.8 6.4 6.1 6.6 6.6 6.4 6.0 6.1 6.4
5.1 5.1 5.3 5.6 6.0 6.4 6.1 5.9 6.1 6.2 6.3 6.0 5.8 5.3 6.0 5.9 5.8 5.9 5.9 5.7 5.5 5.8 5.9 5.7 5.7 5.4 5.4 5.7 5.8 5.7 6.4 6.8 7.3 7.1 7.4 7.3 6.7 6.1 6.0 6.6 6.4 6.3 5.9 6.2
5.0 4.8 5.0 5.3 5.6 5.8 6.1 6.1 6.4 6.5 6.2 6.0 5.8 5.5 5.5 5.9 5.8 5.8 6.1 6.0 5.8 5.8 6.5 5.9 5.9 5.7 5.7 5.5 5.9 6.0 6.5 7.0 7.1 7.0 7.4 7.2 6.9 6.3 6.1 6.2 6.2 6.4 6.4 5.8
5.4 5.7 5.6 5.6 5.9 6.1 6.3 6.6 6.9 6.9 7.0 6.2 6.0 6.1 5.3 5.9 5.7 5.9 5.9 6.3 5.8 6.1 6.3 6.5 6.1 5.9 6.3 5.8 5.9 5.6 6.5 6.5 7.1 7.0 7.2 7.5 7.2 6.8 6.5 6.2 6.6 6.5 6.7 6.6
5.5 5.8 5.6 5.6 5.6 5.9 5.7 5.8 5.9 5.9 6.3 6.3 6.0 5.9 5.9 6.0 6.3 5.8 6.0 6.1 6.3 6.0 6.4 6.6 5.8 5.8 6.0 6.1 5.9 6.0 5.7 5.8 6.0 6.0 6.7 7.2 7.5 7.3 6.9 6.4 6.9 7.1 7.0 7.1
5.9 5.6 5.5 5.5 5.6 5.8 5.8 5.9 5.8 5.6 5.6 5.8 5.9 6.2 5.9 6.0 6.5 6.2 5.9 6.1 6.4 6.0 5.5 6.1 6.0 6.2 5.9 5.7 6.1 6.0 6.0 5.9 6.0 6.0 6.1 6.6 6.9 7.2 7.3 7.1 7.2 7.4 7.5 7.1
5.6 5.6 5.4 5.2 5.2 5.2 5.4 5.5 5.6 5.5 5.1 5.0 5.3 5.7 5.4 5.6 5.8 6.0 5.8 5.6 6.0 6.6 6.1 5.6 5.9 6.2 6.3 6.0 6.0 6.2 6.2 6.5 6.1 5.9 6.3 6.8 7.3 7.4 7.6 7.4 7.6 7.5 7.2 7.0
5.8 5.6 5.4 5.3 5.0 5.1 4.9 4.6 4.6 4.8 4.4 4.6 4.5 4.8 5.0 5.5 5.5 5.6 5.7 5.5 5.0 6.0 6.5 5.7 5.5 6.2 6.5 6.8 6.7 6.5 6.6 6.5 6.3 6.3 6.1 6.8 6.4 7.8 7.9 7.8 7.7 7.6 7.4 7.2
5.9 5.8 5.6 5.4 5.3 5.2 5.0 5.0 4.8 4.9 4.6 4.3 4.1 4.2 4.5 4.9 5.0 5.1 5.6 5.3 4.8 5.2 5.9 6.2 5.7 5.7 5.7 6.6 6.5 6.6 6.3 6.7 6.3 6.5 6.2 6.1 6.4 7.2 7.7 7.7 7.7 7.8 7.8 7.5
6.0 5.7 6.0 6.1 5.6 5.3 5.0 5.1 4.8 5.2 5.2 4.5 4.0 4.0 4.1 4.2 4.5 4.9 5.0 5.2 4.3 4.2 4.6 5.7 5.8 5.8 5.7 5.8 6.2 6.8 6.7 6.9 6.5 6.7 6.7 6.7 6.5 6.8 6.9 7.1 7.3 7.7 7.9 8.1
5.9 5.7 5.9 6.2 5.8 5.5 5.1 5.2 4.9 5.0 5.3 4.8 4.4 4.2 4.1 4.2 4.6 4.9 6.0 5.8 5.3 4.8 4.0 4.3 4.9 5.0 5.6 5.4 6.4 6.6 6.9 6.4 6.7 6.7 6.5 6.6 6.9 6.9 7.0 7.3 7.5 7.7 7.9 8.1
6.1 5.8 6.1 6.0 5.8 5.4 5.2 5.4 5.1 5.0 5.2 5.1 4.9 4.5 4.3 4.4 4.8 4.9 5.4 6.1 6.0 5.5 4.6 3.8 4.5 4.9 4.7 5.4 5.9 6.2 6.3 6.8 7.2 6.7 6.7 6.5 6.6 6.7 6.9 7.2 7.3 7.5 7.9 8.0
6.2 6.2 6.1 6.1 6.0 5.7 5.5 5.6 5.4 5.2 5.0 5.2 5.1 5.0 4.5 4.5 4.6 4.8 5.0 5.5 5.7 6.5 6.3 5.0 4.0 4.5 4.8 4.9 5.6 6.2 6.4 7.0 7.1 7.1 7.0 7.1 6.8 7.0 7.3 7.2 7.1 7.3 7.6 7.6
6.5 6.6 6.6 6.4 6.2 6.0 5.9 5.8 5.4 5.4 5.4 5.3 5.2 5.1 5.0 4.7 4.3 4.6 4.9 5.3 5.4 5.9 5.8 6.0 5.5 4.1 4.7 4.8 5.5 6.2 6.7 6.8 7.2 7.7 7.7 7.6 7.2 7.3 7.1 7.2 7.2 7.2 7.4 7.5
6.5 6.3 6.4 6.5 6.4 6.2 6.2 6.1 5.7 5.7 5.7 5.5 5.2 5.1 5.2 5.3 4.6 4.2 4.5 4.9 5.2 5.5 5.9 6.1 6.0 5.0 4.2 4.8 5.0 5.9 6.8 7.0 7.0 7.3 7.3 7.4 7.6 7.0 7.0 7.2 7.0 7.2 7.3 7.4
6.5 6.3 6.2 6.5 6.7 6.6 6.4 6.3 6.1 5.7 5.8 5.7 5.3 5.4 5.1 5.2 5.0 4.7 4.3 4.4 4.9 5.1 5.4 5.9 6.2 5.8 5.0 4.9 5.0 4.9 6.3 6.9 6.7 7.2 7.3 6.8 6.6 6.6 6.9 7.1 6.9 7.2 7.4 7.3
6.5 6.5 6.4 6.4 6.5 6.5 6.7 6.5 6.3 6.0 5.8 5.8 5.5 5.3 5.1 5.1 5.3 5.0 4.6 4.4 4.7 5.0 5.2 5.6 6.1 6.5 6.4 5.4 5.2 5.4 5.9 5.9 6.0 5.8 5.8 7.0 6.3 6.4 7.1 6.8 6.8 6.5 6.4 6.6
6.8 7.0 7.0 6.8 6.6 6.7 6.7 6.6 6.6 6.1 5.9 5.7 5.6 5.5 5.5 5.2 5.2 5.3 5.1 4.4 4.3 4.7 4.9 5.3 5.5 6.1 6.2 6.2 5.5 5.2 5.4 5.7 5.7 5.8 6.4 6.2 5.9 6.1 6.2 7.1 6.7 6.2 5.5 5.4
7.0 7.1 7.0 7.0 6.8 6.8 6.9 6.7 6.8 6.3 6.0 5.9 5.6 5.5 5.2 5.4 4.8 5.0 5.1 5.0 4.5 4.3 4.7 4.9 5.1 5.7 5.9 5.8 5.6 5.3 5.2 5.3 5.3 5.6 5.8 5.2 6.1 6.4 6.5 6.4 6.1 5.6 5.6 5.3
6.6 6.9 7.0 7.1 7.2 6.9 6.8 7.0 7.1 6.9 6.3 5.8 5.7 5.5 5.5 5.4 5.3 4.9 4.8 4.7 5.0 4.9 4.3 4.2 4.7 4.6 5.2 5.5 5.1 4.9 4.7 5.0 5.2 4.8 4.6 5.9 4.6 5.9 6.1 6.1 5.5 5.0 4.9 5.1
6.8 7.1 7.1 7.0 7.2 7.1 7.0 7.0 7.0 7.0 6.5 6.1 5.8 5.5 5.6 5.4 5.4 5.5 5.1 4.6 4.2 4.4 4.6 4.4 3.9 4.3 4.4 4.6 4.9 4.8 4.6 5.1 5.0 4.3 3.9 4.2 5.0 5.3 5.5 5.3 4.6 4.6 4.6 4.4
7.2 7.2 7.6 7.2 7.4 7.3 7.0 7.3 7.0 6.9 6.6 6.3 6.1 5.9 5.7 5.5 5.4 5.6 5.4 5.1 4.4 3.9 3.8 3.5 3.2 3.8 3.8 4.0 4.3 4.2 4.4 4.3 4.3 4.5 3.4 4.1 4.5 4.5 5.0 4.9 4.9 4.5 4.9 4.4
Wind_Speed
3 2 2 1 4 5 4 2 1 4 4 7 8 8 8 10 14 17 16 17 14 11 9 6 7 7 7 7 14 15 14 14 16 15 15 14 13 14 11 11 11 10 10 8
5 5 4 3 4 5 7 5 6 6 1 6 6 8 13 12 13 14 13 13 12 13 14 12 11 9 10 8 8 16 17 16 14 15 14 14 13 13 13 11 11 8 11 12
4 6 7 5 6 5 2 1 3 4 4 8 9 13 9 10 12 12 12 13 11 10 8 13 10 7 8 7 5 11 17 16 16 14 15 15 15 13 14 14 12 13 13 12
1 5 2 4 7 8 1 7 8 6 9 9 8 10 4 5 9 14 14 13 12 11 11 9 14 9 6 6 3 5 10 15 15 16 16 14 14 15 15 13 14 13 13 13
3 2 5 2 5 5 4 2 7 6 8 10 18 12 7 6 11 11 12 13 11 11 12 12 13 7 5 7 5 3 4 6 15 17 17 16 16 16 15 13 12 13 13 14
2 3 4 0 5 7 2 5 6 10 7 7 7 5 6 12 19 20 17 13 14 15 14 14 11 10 7 8 7 7 5 6 5 6 15 16 17 16 14 13 14 11 13 14
3 3 3 3 9 5 5 2 8 9 11 10 9 6 16 20 21 16 18 19 16 14 13 12 13 7 11 6 7 7 5 6 5 5 5 9 12 12 13 12 11 12 13 13
2 1 6 4 4 1 4 6 11 16 16 16 15 14 17 19 17 20 19 20 20 15 14 13 13 8 11 10 6 7 5 5 5 6 6 6 7 11 11 10 11 13 13 12
7 5 3 4 5 6 4 9 13 16 16 14 17 16 13 19 16 15 17 16 16 17 16 15 10 12 7 9 6 6 6 7 7 7 8 10 10 11 11 13 13 12 12 12
3 4 4 2 2 3 6 8 10 14 14 13 18 16 15 16 10 10 12 15 15 16 19 18 13 10 12 6 8 6 6 7 6 7 9 9 10 10 11 12 12 13 12 12
4 9 7 7 6 7 7 7 9 13 13 13 14 15 14 13 9 7 9 14 15 16 16 19 15 11 13 6 4 8 5 6 8 6 7 8 10 8 9 14 13 12 13 12
6 7 5 5 5 6 9 8 9 13 15 12 11 13 13 14 10 8 10 15 16 18 18 17 13 12 10 7 5 5 6 4 5 7 7 8 4 7 3 6 11 17 12 13
5 5 7 7 6 7 8 10 8 9 12 14 14 12 15 12 10 14 11 9 13 16 16 14 7 8 7 7 7 6 6 5 4 7 9 10 9 5 8 4 3 6 13 16
8 2 6 8 7 6 7 9 10 6 11 10 10 11 13 12 11 10 11 10 11 14 8 3 5 7 5 4 6 7 9 11 3 5 7 9 10 11 8 5 8 10 9 12
9 10 11 5 5 7 6 5 7 6 8 9 9 10 11 11 10 11 11 11 10 10 9 9 6 7 5 6 7 6 7 6 4 4 6 10 10 10 11 9 10 10 3 3
7 8 7 8 10 7 7 6 7 7 8 7 8 10 11 11 10 10 10 10 10 8 9 10 10 8 7 8 9 7 7 13 11 5 7 9 11 11 12 11 11 10 8 10
5 6 5 6 5 6 6 6 7 7 9 10 12 9 10 11 10 10 11 10 9 9 9 10 10 9 10 11 10 7 6 7 11 7 9 10 11 12 11 9 10 9 9 7
9 5 6 6 5 6 7 6 6 7 8 9 10 12 10 11 11 10 12 13 10 9 9 9 11 12 10 10 10 9 6 9 8 8 9 10 11 11 9 9 9 9 5 5
7 9 8 6 7 6 6 7 6 6 6 6 8 11 10 10 11 11 12 11 11 11 11 12 19 13 8 10 11 5 8 11 10 9 7 8 10 10 8 8 9 9 9 8
7 6 6 6 7 6 7 6 4 2 4 5 6 9 10 9 8 10 11 10 11 9 12 12 12 8 9 7 9 3 5 7 3 1 1 2 2 2 2 2 6 8 8 7
8 7 7 8 7 7 6 5 4 3 4 2 3 6 8 10 11 11 12 9 14 13 14 17 9 5 4 5 6 6 6 7 7 6 3 3 3 5 7 8 6 5 8 9
6 6 6 7 6 6 4 4 6 5 5 3 1 5 6 8 10 8 11 11 11 23 12 9 6 11 8 13 6 8 8 9 9 7 6 5 7 6 8 8 7 8 7 9
3 4 6 5 6 4 3 6 6 5 4 3 1 5 5 4 4 8 9 13 10 19 11 9 19 19 18 9 8 9 11 11 11 11 9 7 6 9 9 9 10 10 8 10
4 1 2 2 2 3 5 5 6 5 3 3 4 5 4 4 5 1 3 7 12 15 14 15 19 26 21 10 9 10 13 13 12 13 9 12 7 9 11 11 11 12 11 15
4 1 3 5 3 3 6 6 6 4 3 3 5 5 6 3 3 4 3 3 6 6 7 20 24 24 13 12 12 13 14 13 12 13 8 10 7 13 14 13 12 10 12 11
1 3 3 3 2 3 4 4 4 4 3 3 4 4 5 4 4 4 4 4 3 3 2 3 8 10 10 12 13 13 12 13 12 10 4 3 12 15 14 13 10 11 11 9
4 3 2 2 4 3 4 3 4 4 3 2 2 3 4 4 5 5 6 5 4 4 3 3 1 4 6 8 10 11 10 11 11 10 8 11 11 12 12 11 10 9 9 7
Wind_Direction
147 249 10 285 70 62 84 199 262 281 344 310 325 331 354 28 26 51 53 39 29 28 11 359 341 311 248 205 197 195 203 206 208 208 209 209 210 209 191 187 200 195 196 204
351 10 32 266 222 198 197 201 251 281 254 309 349 357 23 16 22 24 26 29 22 13 2 355 350 325 312 237 209 188 195 205 208 203 208 211 207 208 212 203 203 189 196 203
308 340 340 1 48 61 69 321 262 259 11 360 11 4 12 4 8 8 8 4 4 354 335 331 317 301 296 271 202 196 193 201 205 203 206 206 205 204 209 213 208 210 212 208
166 20 347 232 41 58 118 53 3 57 32 15 344 325 324 13 15 351 347 349 347 348 335 321 293 287 277 306 245 225 195 202 206 204 208 204 204 206 209 209 211 213 217 213
128 200 295 33 29 4 45 306 360 345 11 16 334 326 238 8 2 339 324 323 321 326 315 301 296 303 309 321 304 275 220 227 211 205 203 202 206 208 211 208 212 214 217 217
134 154 240 45 326 316 214 233 10 330 336 344 342 300 276 348 335 319 313 309 314 320 312 308 323 330 312 304 296 289 260 217 236 252 211 205 208 209 211 204 213 209 217 218
203 235 268 10 318 317 174 303 321 320 312 306 288 278 293 305 302 297 296 300 305 304 304 305 311 314 305 266 252 259 241 216 203 230 250 228 214 215 210 208 210 211 218 221
144 234 269 24 23 90 305 315 315 308 303 299 292 287 282 289 287 289 288 295 298 299 295 293 299 290 291 297 300 322 328 250 216 227 226 224 233 212 214 203 212 215 216 223
178 216 184 162 194 263 272 298 313 307 301 294 289 282 280 287 281 275 276 281 287 291 289 277 275 289 280 286 299 304 315 309 304 264 236 215 215 219 217 211 211 215 219 222
15 293 236 254 279 267 284 280 297 305 292 283 289 287 288 288 278 267 267 272 278 281 288 288 272 265 273 280 293 288 278 275 273 279 277 251 231 219 218 211 214 218 220 225
260 279 292 285 219 247 268 278 293 316 301 290 285 286 296 303 294 289 275 271 260 256 261 267 265 253 267 262 272 277 271 286 294 282 275 270 219 205 198 218 210 216 222 218
222 217 178 242 231 259 267 275 293 312 318 299 293 297 294 300 297 295 297 311 264 252 253 252 242 245 250 275 261 264 276 284 313 308 301 288 299 235 66 252 217 217 216 213
219 193 206 243 245 243 247 256 269 296 315 311 306 300 297 296 296 304 304 319 317 275 254 242 224 227 232 243 277 282 280 272 309 308 318 326 292 260 232 201 54 252 232 228
233 114 287 244 237 243 230 249 256 277 301 305 303 300 295 293 304 308 306 313 311 317 297 239 238 248 239 257 262 273 281 261 238 276 278 275 282 292 276 223 236 237 227 225
233 205 228 261 290 274 250 257 265 275 308 323 308 302 301 299 301 302 302 307 308 307 309 305 291 274 265 267 252 264 264 278 269 260 278 278 272 273 267 237 231 232 199 231
224 229 236 238 260 276 273 276 248 263 271 286 312 320 318 302 294 303 302 306 307 306 303 292 287 284 288 280 268 257 255 256 253 258 263 260 263 253 246 220 217 219 210 220
192 247 235 245 245 257 255 263 245 254 275 284 289 312 327 319 315 313 318 314 314 306 300 289 294 298 284 272 261 253 249 255 253 259 260 256 259 259 251 217 200 203 213 193
218 215 209 226 257 275 285 263 246 259 271 283 304 311 321 324 320 326 321 321 320 319 297 294 295 277 274 285 272 266 256 260 255 255 250 249 249 248 231 211 202 187 177 169
213 221 237 226 241 252 261 259 252 251 299 326 337 340 341 342 341 338 328 327 322 316 313 314 308 321 308 293 291 273 290 250 233 245 249 253 245 244 228 203 190 176 167 156
235 229 257 259 256 239 264 245 252 201 58 24 359 359 3 357 347 346 347 342 332 316 325 317 321 317 306 314 323 352 357 354 44 4 348 272 19 32 16 86 177 163 155 141
234 236 241 252 273 276 239 237 184 155 119 80 12 320 334 349 354 355 1 358 349 348 341 336 330 331 317 25 20 35 29 25 22 11 344 62 51 62 75 64 50 72 103 105
229 224 234 232 249 268 222 190 151 131 138 161 11 315 314 319 334 349 12 6 355 9 353 346 344 20 36 48 34 49 43 51 36 16 339 58 76 64 66 75 71 73 72 87
242 224 239 225 239 268 223 163 147 154 169 204 261 301 310 306 321 7 13 5 5 11 10 4 19 28 37 36 33 49 51 45 48 29 6 349 73 86 76 69 74 65 68 83
241 189 158 95 107 140 164 172 156 171 177 252 273 289 305 331 328 342 334 338 17 20 21 25 23 32 35 31 27 47 53 42 40 44 2 13 9 77 78 79 75 78 72 76
349 42 339 321 118 184 170 165 139 143 178 265 292 305 305 265 232 287 293 322 3 26 18 20 28 32 32 33 31 39 45 44 25 48 353 38 302 73 67 65 63 69 76 80
358 286 208 267 339 132 118 145 152 181 190 271 300 300 308 314 325 335 348 355 35 112 85 354 26 32 35 44 46 46 49 56 43 59 3 44 35 52 55 58 55 73 74 73
345 348 321 334 21 49 114 150 161 212 190 211 272 328 342 330 337 353 355 21 15 16 76 125 158 57 46 49 57 59 64 69 50 50 33 42 43 51 50 49 43 46 59 68